Home   Weather   Aguascalientes   Past weeks

Flag for Mexico Past Weather in Aguascalientes, Aguascalientes, Mexico — Yesterday and Last 2 Weeks

Now
45 °F

Clear.


Feels Like: 41 °F
Forecast: 42 / 69 °F
Wind: 7 mph from South

Location: Aguascalientes - Ags.

Current Time: Feb 20, 2017 at 5:32:15 am

Latest Report: Feb 20, 2017 at 4:40 am


Visibility: 9 mi

Pressure: 30.19 "Hg (24.03 "Hg at 1870m altitude)

Humidity: 93%

Dew Point: 43 °F

Location of AguascalientesLocation

Past Weather in Aguascalientes — Graph

°F

Aguascalientes Temperature Yesterday

Maximum temperature yesterday: 68 °F (at 2:40 pm)
Minimum temperature yesterday: 50 °F (at 6:40 am)
Average temperature yesterday: 60 °F

High & Low Weather Summary for the Past Weeks

 TemperatureHumidityPressure
High82 °F (Feb 8, 5:40 pm)100% (Feb 19, 7:44 am)30.48 "Hg (Feb 19, 7:44 am)
Low37 °F (Feb 8, 6:40 am)5% (Feb 11, 5:42 pm)29.78 "Hg (Feb 13, 5:51 pm)
Average62 °F32%30.18 "Hg
* Reported Feb 4 11:40 pm — Feb 19 11:40 pm, Aguascalientes, Weather by CustomWeather, © 2017

Note: Actual official high and low records may vary slightly from our data, if they occured in-between our weather recording intervals... More about our weather records

Advertising

Aguascalientes Weather History for the Previous 24 Hours

Scroll right to see more
 ConditionsComfort  
Time TempWeatherWind HumidityBarometerVisibility
11:40 pm
Sun, Feb 19
57 °FMostly cloudy.6 mph44%30.10 "Hg10 mi
10:40 pm57 °FMostly cloudy.6 mph41%30.23 "Hg10 mi
9:40 pm57 °FMostly cloudy.7 mph41%30.21 "Hg10 mi
8:40 pm59 °FMostly cloudy.7 mph34%30.19 "Hg10 mi
7:40 pm61 °FPartly cloudy.21 mph31%30.17 "Hg10 mi
6:40 pm64 °FBroken clouds.12 mph32%30.15 "Hg10 mi
5:40 pm66 °FBroken clouds.17 mph32%30.04 "Hg10 mi
4:40 pm66 °FBroken clouds.17 mph30%30.14 "Hg10 mi
3:43 pm68 °FBroken clouds.14 mph28%30.14 "Hg10 mi
2:40 pm68 °FPartly sunny.17 mph28%30.15 "Hg10 mi
1:40 pm66 °FPartly sunny.14 mph32%30.18 "Hg10 mi
12:41 pm64 °FScattered clouds.8 mph34%30.20 "Hg10 mi
11:40 am63 °FScattered clouds.14 mph42%29.97 "Hg10 mi
10:40 am59 °FBroken clouds.17 mph59%30.26 "Hg10 mi
9:41 am55 °FBroken clouds.12 mph77%30.25 "Hg10 mi
8:40 am52 °FBroken clouds.12 mph94%30.25 "Hg10 mi
7:44 am50 °FPartly sunny.9 mph100%30.23 "Hg10 mi
6:40 am50 °FPassing clouds.10 mph94%30.21 "Hg9 mi
5:40 am54 °FPassing clouds.7 mph72%29.92 "Hg9 mi
Weather by CustomWeather, © 2017

See weather overviewHow to use our weather pages